Wind_Speed
9 9 9 9 9 8 8 8 8 8 8 8 9 9 8 8 8 8 8 8 8 8 8 8 8 9 10 10 11 11 12 12 13 13 13 13 13 13 13 13 14 15 16
9 9 10 10 10 9 9 8 8 9 9 9 9 10 10 9 9 8 9 9 9 9 9 9 9 10 10 11 11 12 12 13 14 14 14 14 14 14 14 14 14 15 16
10 10 10 11 11 10 10 9 9 9 10 10 10 11 11 10 10 10 10 9 10 10 10 10 10 11 11 12 12 12 13 13 14 15 16 16 16 15 16 16 16 16 17
10 10 10 10 11 10 10 10 9 9 10 12 12 12 12 11 10 10 10 10 11 11 11 11 10 11 11 12 12 13 13 14 15 15 17 17 17 17 17 17 17 17 18
10 10 10 10 10 10 10 10 10 11 12 12 12 12 12 12 12 11 11 11 11 11 11 12 11 11 12 12 13 13 14 15 15 15 16 16 17 17 17 18 18 19 19
10 10 10 10 10 11 11 11 12 12 12 13 13 13 13 13 12 12 12 12 12 12 13 13 13 13 13 13 14 14 15 15 16 16 16 16 17 18 18 19 19 20 20
10 10 11 11 11 11 12 12 13 13 13 14 14 13 14 13 13 13 13 13 13 13 13 13 13 14 14 15 15 16 16 17 17 17 18 17 17 18 19 20 20 21 21
11 11 11 11 11 12 12 13 13 14 14 14 14 13 14 14 14 13 13 13 13 13 13 13 14 14 15 16 17 17 18 19 19 19 19 18 19 19 20 20 20 20 21
11 11 12 11 12 12 13 14 14 15 15 14 14 14 14 14 14 14 14 13 13 13 14 14 14 14 15 17 18 18 19 20 20 20 20 21 21 21 21 21 21 21 21
12 12 12 12 13 13 14 15 16 16 15 15 15 15 15 15 15 15 15 15 15 14 14 15 15 16 16 18 19 20 20 20 20 21 21 21 21 21 21 22 22 22 22
13 13 14 14 14 14 15 15 16 16 16 16 16 16 16 16 16 16 16 16 16 16 15 16 16 16 17 18 19 20 21 21 21 21 21 21 20 21 22 22 23 24 24
13 14 16 16 15 15 16 16 16 16 17 17 17 17 17 17 17 17 17 17 17 17 18 18 17 17 19 19 20 20 21 21 21 21 21 21 21 22 22 23 23 24 25
15 16 17 17 16 16 16 17 17 17 18 19 19 18 18 17 18 17 18 18 18 19 19 19 19 20 20 21 20 21 21 21 21 21 21 22 22 23 23 24 24 25 25
18 18 18 18 17 17 17 18 18 19 19 20 19 19 18 18 18 18 19 19 19 20 19 20 20 21 21 21 21 21 22 22 22 22 23 23 23 24 24 25 25 25 25
18 19 20 19 19 19 19 20 20 20 21 20 20 20 20 20 20 20 20 20 21 21 21 21 21 21 21 22 21 22 22 23 23 23 24 24 24 25 25 25 26 27 27
19 20 21 21 21 21 21 21 21 21 21 20 20 21 21 21 21 21 21 22 22 22 22 22 22 22 22 21 21 22 23 23 23 24 24 25 25 26 26 26 27 27 28
20 21 22 22 22 22 22 22 22 22 22 22 22 22 22 22 22 22 23 24 24 23 23 23 22 22 22 22 23 24 24 24 24 25 25 25 26 26 27 27 27 28 28
21 22 23 22 23 23 23 22 22 22 22 22 22 23 23 23 24 24 24 25 24 24 23 23 23 23 23 24 24 25 25 25 25 25 25 25 26 27 27 27 27 28 27
22 23 23 22 22 22 23 23 23 23 23 23 24 25 25 25 25 25 25 25 24 24 24 24 25 24 24 24 24 25 25 26 26 26 26 27 27 27 27 28 28 28 28
22 22 22 21 21 22 23 23 24 24 24 25 26 26 27 27 26 26 25 25 25 25 25 25 25 25 25 25 26 26 26 26 26 26 27 27 27 27 27 28 27 27 27
22 22 22 22 22 23 23 24 25 25 25 26 26 26 27 27 26 26 26 26 26 26 26 25 25 25 26 26 26 26 27 27 27 27 27 27 28 28 27 27 27 27 27
22 22 22 23 23 24 24 24 25 25 25 25 26 27 27 27 26 27 27 27 26 25 25 25 25 26 27 27 27 27 27 27 27 27 27 28 28 28 28 28 28 28 29
23 23 23 23 24 24 25 25 25 25 25 26 26 26 26 26 26 27 26 26 26 25 25 25 26 27 28 28 28 28 28 27 28 28 28 28 28 28 28 28 28 28 28
24 24 24 24 24 24 25 25 25 25 26 27 27 27 27 26 26 26 26 26 26 26 26 27 27 27 28 29 29 29 28 28 28 28 28 28 28 29 28 28 28 28 27
24 25 25 25 24 25 25 25 26 26 27 27 27 27 27 27 26 26 26 26 26 27 27 28 28 28 29 29 29 28 28 28 27 27 27 27 27 27 27 27 27 25 24
24 25 25 25 25 25 26 26 27 26 27 27 27 27 27 27 27 27 27 27 27 27 28 28 29 29 29 29 28 28 28 27 27 27 27 27 27 27 27 27 26 25 24
Wind_Direction
345 346 345 343 344 341 339 341 341 338 336 334 330 325 323 320 315 309 307 303 300 295 291 286 284 281 276 270 269 268 269 270 271 271 271 274 277 278 273 269 264 259 257
334 336 339 339 338 342 338 337 339 336 331 328 329 326 322 318 315 310 306 303 301 297 292 287 284 285 282 275 272 271 270 271 272 272 270 272 273 275 277 273 269 264 260
326 330 332 333 334 339 337 335 334 333 327 322 321 322 323 321 317 312 307 301 297 295 292 286 282 282 280 277 276 272 271 273 275 274 272 272 272 273 274 274 271 266 262
320 325 327 328 329 331 330 332 329 328 328 326 323 321 322 321 318 314 309 303 298 296 292 289 284 282 279 275 275 276 276 278 278 277 277 273 271 269 269 272 272 271 268
319 322 324 325 326 328 328 326 324 326 326 326 327 323 320 318 315 311 308 305 302 296 294 294 291 286 282 279 278 278 280 282 283 281 279 273 272 273 271 273 272 271 270
318 317 319 322 325 326 327 325 323 322 322 321 321 320 319 318 315 313 308 305 300 295 291 291 290 289 285 282 281 281 282 283 284 284 281 277 275 272 273 273 273 272 272
319 318 319 320 320 321 322 324 326 325 323 321 318 318 317 318 317 314 309 305 302 298 293 291 288 287 286 284 283 283 284 284 284 283 282 279 277 274 273 271 272 272 271
315 319 321 319 319 320 320 322 325 325 325 322 318 318 319 318 317 318 317 311 307 305 301 295 290 288 287 287 287 287 285 284 284 283 283 281 280 277 275 274 273 273 271
313 314 315 316 319 320 319 320 321 322 324 322 319 318 320 320 319 319 317 313 308 306 303 302 298 295 292 291 290 289 288 285 284 285 283 281 280 278 276 275 274 274 273
309 310 312 313 316 316 316 316 317 318 319 318 317 315 316 317 317 315 314 312 308 304 301 302 301 298 297 295 292 291 289 289 285 283 283 282 281 278 277 277 275 274 274
306 309 310 312 313 314 314 313 314 316 317 316 315 314 315 316 315 314 313 310 307 303 303 302 300 298 298 299 297 296 292 292 289 285 284 283 282 283 282 281 279 277 275
301 304 307 309 310 311 312 311 310 313 315 315 314 314 314 313 314 313 312 309 306 302 302 303 300 298 298 299 300 297 295 294 293 288 285 284 283 282 281 280 280 279 277
298 301 305 307 307 307 309 309 308 310 312 312 312 312 312 311 312 313 313 311 308 304 300 299 298 297 298 299 299 299 297 295 293 290 286 284 283 282 280 278 279 278 278
297 299 301 302 302 303 307 310 308 307 309 309 309 310 310 310 312 311 311 310 308 306 301 298 299 297 297 297 297 296 295 295 294 292 290 287 284 283 282 278 278 277 277
293 295 298 298 299 301 304 306 306 305 307 308 306 306 307 309 310 310 310 308 307 305 302 300 298 297 297 297 297 296 295 294 294 293 291 289 287 285 283 280 278 277 276
289 291 293 294 295 297 298 301 303 304 305 306 305 304 305 308 310 310 310 309 308 306 303 302 300 299 297 296 298 299 298 297 295 293 292 289 288 288 285 283 281 280 279
285 289 290 291 292 292 293 295 299 300 301 304 304 306 304 306 307 308 309 310 309 306 304 303 302 300 298 298 298 298 298 297 296 294 292 291 290 289 287 285 283 281 281
285 287 288 287 289 290 290 291 295 297 299 301 302 303 303 304 305 305 305 306 306 305 304 303 303 301 301 299 297 297 297 297 296 295 293 291 291 290 288 286 285 284 282
285 285 286 288 290 289 289 290 292 294 297 299 300 301 301 301 302 302 302 303 304 304 305 306 304 302 299 298 298 298 297 297 296 295 295 293 291 289 288 287 286 285 283
288 285 285 288 289 288 288 289 291 292 295 297 298 299 300 300 300 300 300 302 303 305 306 306 304 302 300 299 298 297 298 298 297 297 297 295 295 292 289 287 286 286 283
288 287 286 288 289 288 288 289 291 293 294 296 298 299 300 300 300 301 301 303 303 303 303 303 302 302 302 301 300 298 298 297 296 296 295 295 294 293 291 288 287 286 284
286 286 286 287 288 289 289 290 291 293 295 297 299 300 301 301 301 300 300 301 301 301 301 302 304 305 305 303 302 300 298 296 296 295 293 294 294 293 292 290 288 287 286
285 286 287 288 290 291 291 291 292 293 295 297 299 300 301 301 300 299 299 300 302 302 304 304 305 306 306 304 303 301 299 298 296 295 294 293 293 293 292 291 291 289 287
282 285 287 288 291 293 292 291 293 295 297 298 299 300 300 300 301 302 301 301 302 304 305 305 305 306 306 305 304 303 302 301 299 297 295 294 293 293 292 291 291 290 288
280 283 286 287 289 291 292 296 298 297 298 300 301 301 303 302 301 303 304 303 303 304 305 304 304 304 304 304 304 304 303 302 302 301 299 297 295 294 293 292 292 290 288
278 281 284 286 289 292 295 297 298 298 298 299 300 301 302 303 302 302 303 304 304 304 304 304 304 304 304 304 303 303 302 302 302 302 302 301 299 297 294 292 291 289 290
Height
5907 5905 5904 5902 5900 5898 5896 5894 5892 5890 5889 5887 5886 5884 5883 5881 5880 5878 5877 5876 5875 5874 5873 5873 5872 5872 5871 5871 5871 5871 5870 5870 5869 5869 5868 5868 5867 5866 5865 5865 5864 5864 5864
5907 5905 5903 5901 5899 5896 5894 5893 5891 5889 5888 5886 5884 5883 5881 5879 5878 5877 5875 5874 5873 5872 5871 5871 5870 5869 5869 5869 5868 5868 5868 5867 5866 5866 5865 5865 5864 5863 5862 5862 5861 5861 5861
5906 5904 5902 5900 5898 5895 5893 5892 5890 5889 5887 5885 5883 5881 5879 5878 5876 5875 5873 5872 5871 5870 5869 5868 5867 5867 5866 5866 5866 5865 5865 5864 5863 5863 5862 5861 5861 5860 5859 5858 5858 5857 5857
5904 5903 5901 5899 5897 5895 5892 5891 5889 5888 5886 5883 5881 5879 5878 5876 5874 5872 5871 5870 5868 5867 5866 5866 5865 5864 5864 5863 5863 5862 5861 5861 5860 5859 5859 5857 5856 5856 5856 5855 5854 5853 5853
5903 5901 5900 5898 5895 5893 5892 5890 5888 5886 5884 5882 5880 5878 5876 5874 5872 5870 5868 5867 5866 5864 5864 5863 5862 5861 5861 5860 5859 5859 5858 5858 5857 5856 5855 5853 5852 5852 5851 5851 5850 5849 5849
5901 5900 5898 5896 5894 5892 5890 5888 5887 5885 5883 5880 5878 5876 5874 5872 5870 5868 5866 5865 5863 5862 5861 5860 5859 5858 5857 5857 5856 5855 5855 5854 5853 5852 5851 5850 5848 5847 5847 5846 5845 5845 5844
5900 5898 5896 5894 5892 5891 5889 5887 5885 5883 5880 5878 5876 5874 5872 5870 5868 5866 5864 5862 5861 5859 5858 5857 5856 5855 5854 5853 5852 5851 5850 5849 5848 5847 5846 5845 5844 5843 5842 5841 5841 5840 5839
5898 5897 5895 5893 5891 5889 5887 5885 5883 5881 5878 5876 5874 5871 5869 5867 5865 5863 5861 5859 5857 5856 5854 5853 5852 5851 5850 5849 5848 5847 5846 5844 5843 5842 5841 5840 5839 5838 5837 5836 5836 5835 5834
5896 5895 5893 5891 5889 5887 5885 5882 5880 5878 5876 5874 5872 5869 5867 5865 5863 5860 5858 5856 5854 5853 5851 5850 5849 5847 5846 5845 5843 5842 5841 5839 5838 5837 5836 5835 5834 5833 5832 5831 5830 5830 5829
5895 5893 5891 5889 5886 5884 5882 5880 5878 5876 5874 5871 5869 5867 5865 5862 5860 5858 5855 5853 5851 5850 5848 5847 5845 5843 5842 5840 5838 5837 5836 5834 5833 5832 5830 5829 5828 5827 5826 5826 5825 5824 5824
5892 5890 5888 5886 5884 5882 5880 5877 5875 5873 5871 5869 5866 5864 5862 5859 5857 5855 5852 5850 5848 5846 5844 5842 5841 5839 5837 5836 5834 5832 5831 5829 5828 5826 5825 5824 5822 5821 5820 5819 5819 5818 5817
5889 5887 5885 5883 5881 5878 5876 5874 5872 5870 5868 5866 5863 5861 5859 5856 5854 5851 5849 5846 5844 5842 5840 5838 5836 5835 5833 5831 5829 5827 5825 5824 5822 5820 5819 5818 5817 5816 5814 5813 5812 5812 5811
5886 5884 5881 5879 5877 5875 5873 5871 5869 5867 5865 5862 5860 5858 5855 5853 5850 5848 5845 5843 5840 5838 5836 5834 5832 5830 5828 5826 5824 5822 5820 5818 5816 5815 5813 5812 5811 5809 5808 5807 5806 5805 5804
5882 5880 5878 5876 5874 5872 5870 5868 5866 5863 5861 5859 5856 5854 5852 5849 5847 5844 5842 5839 5837 5834 5831 5829 5827 5825 5822 5821 5819 5817 5815 5813 5811 5809 5807 5805 5804 5803 5801 5800 5799 5798 5796
5877 5876 5873 5871 5870 5868 5866 5864 5862 5859 5857 5855 5852 5850 5848 5846 5843 5841 5838 5835 5832 5830 5827 5824 5822 5820 5817 5815 5813 5811 5809 5807 5805 5803 5801 5799 5797 5795 5794 5793 5792 5790 5789
5873 5871 5869 5867 5865 5863 5861 5859 5857 5855 5853 5850 5848 5846 5844 5841 5839 5836 5833 5830 5827 5825 5822 5819 5817 5814 5812 5810 5808 5805 5803 5801 5799 5796 5794 5792 5791 5789 5787 5785 5784 5782 5781
5868 5866 5864 5862 5860 5858 5857 5855 5853 5850 5848 5846 5844 5841 5839 5836 5834 5831 5828 5825 5822 5819 5817 5814 5811 5809 5806 5804 5802 5799 5797 5794 5792 5790 5787 5785 5783 5781 5780 5778 5776 5775 5773
5862 5860 5858 5857 5855 5853 5851 5849 5847 5845 5843 5841 5838 5836 5833 5831 5828 5826 5823 5820 5817 5814 5811 5808 5805 5803 5800 5798 5795 5793 5790 5787 5785 5783 5780 5778 5776 5774 5772 5770 5768 5766 5765
5856 5855 5853 5851 5849 5847 5845 5844 5842 5840 5837 5835 5833 5830 5827 5825 5822 5819 5817 5814 5811 5808 5805 5802 5799 5796 5794 5791 5789 5786 5783 5780 5778 5775 5773 5771 5768 5766 5764 5762 5760 5758 5756
5850 5849 5847 5845 5843 5841 5839 5838 5836 5834 5831 5829 5827 5824 5821 5818 5815 5813 5810 5807 5804 5801 5798 5795 5792 5790 5787 5785 5782 5779 5776 5773 5770 5768 5765 5763 5761 5758 5755 5753 5751 5749 5747
5844 5843 5841 5839 5837 5835 5833 5831 5830 5827 5825 5823 5820 5817 5814 5811 5809 5806 5803 5800 5797 5794 5791 5788 5785 5782 5780 5777 5774 5771 5768 5766 5763 5760 5758 5755 5753 5750 5747 5745 5743 5740 5738
5838 5836 5835 5833 5831 5829 5827 5825 5823 5821 5818 5816 5813 5811 5808 5805 5802 5800 5797 5794 5791 5787 5784 5781 5778 5775 5772 5769 5766 5763 5760 5757 5755 5752 5750 5747 5744 5742 5739 5736 5734 5731 5729
5831 5830 5828 5827 5825 5823 5821 5819 5817 5815 5812 5810 5807 5804 5801 5798 5795 5792 5789 5787 5783 5780 5777 5774 5771 5768 5764 5761 5758 5755 5752 5749 5746 5743 5740 5738 5735 5733 5730 5728 5725 5722 5720
5825 5823 5822 5820 5819 5817 5815 5813 5810 5808 5806 5803 5800 5797 5794 5791 5788 5785 5782 5779 5776 5773 5770 5767 5763 5760 5757 5753 5750 5747 5743 5740 5737 5734 5731 5729 5726 5723 5721 5718 5716 5713 5711
5818 5816 5815 5814 5812 5810 5808 5806 5804 5801 5799 5796 5793 5790 5787 5784 5781 5778 5775 5772 5769 5766 5763 5760 5756 5753 5750 5746 5742 5739 5736 5732 5729 5726 5723 5720 5717 5714 5712 5709 5707 5704 5702
5810 5809 5808 5807 5805 5803 5801 5799 5796 5794 5791 5789 5786 5783 5780 5777 5774 5771 5768 5765 5762 5759 5755 5752 5748 5745 5742 5738 5734 5731 5728 5724 5721 5718 5715 5712 5708 5706 5703 5701 5698 5696 5694